TITAN 3C TRANSTAGE DEB, 1964

Orbit data source: Space-Track

TITAN 3C TRANSTAGE DEB, 1964 is space debris in LEO originally from a launch on Fri, 15 Oct 1965 UTC launched from the Air Force Eastern Test Range (AFETR). Debris objects in space refer to the collection of defunct objects orbiting the Earth. Examples of debris include non-operational satellites, rocket bodies, and fragments generated from explosions, collisions, or faulty payload assembly.

Loading next visibility...
Identifier
1964, 1965-082GZ
Orbit
LEO
Country
Flag of USUS
Related business
Manufacturer
Unknown
Mission
Spacecraft
Bus & Motor
Unknown
Mass
Unknown
Launch date (UTC)
1965-10-15 (60 years ago)
Launch vehicle
Unknown
Launch site
Air Force Eastern Test Range (AFETR)
Object type
Payload
Rocket body
Debris
Shape & HBR
Unknown shape, 0.1 m
Radar Cross Section
Small (<0.1 m²)

Expand to show TLE details & history
Last TLE update: 21 hours ago

TLE from 21 hours ago
0 TITAN 3C TRANSTAGE DEB
1  1964U 65082GZ  25294.63966360  .00001518  00000-0  52402-3 0  9993
2  1964  32.1996  36.2854 0177573 347.2300  12.3877 14.25703168 83577
Epoch: 2025-10-21T15:21Z
TLE epoch observation values (Epoch: 2025-10-21T15:21:06.935Z)
Latitude
0.00002°
Longitude
135.68181°
Altitude
680.343 km
Speed
7.583 km/s
True Right ascension
02h 25m 08s
True Declination
0° 00' 00"
Sunlit
Object was in full shadow at epoch
Visualization orbit readout
Latitude
Unknown
Longitude
Unknown
Altitude
Unknown
Speed
Unknown
Apparent Right ascension
Unknown
Apparent Declination
Unknown
Sunlit
N/A
Visualization observer readout
Local Sidereal Time
07:45:20
Azimuth
Unknown
Elevation
Unknown
Doppler factor
Unknown
Orbital elements
Apogee altitude
937.292 km
Perigee altitude
682.02 km
Semi-major axis
7,187.793 km
Eccentricity
0.01776
Inclination
32.1996°
RAAN
36.2854°
Arg. of periapsis
347.23°
True anomaly
12.83388°
Mean anomaly
12.3877°
Eccentric anomaly
12.60981°
Mean motion
3.56164 °/min
Orbital period
101.08 mins
BSTAR
0.00052402

Documentation

Showing up to 5 results
|